Tracking 31027 objects as of 19-Jul-2025
HD Live streaming from Space Station
objects crossing your sky now

COSMOS 2133

Track COSMOS 2133 now!
COSMOS 2133 is classified as:


NORAD ID: 21111
Int'l Code: 1991-010A
Perigee: 35,761.3 km
Apogee: 35,820.0 km
Inclination: 13.5 °
Period: 1,435.9 minutes
Semi major axis: 42161 km
RCS: 12.1 m2 (large)
Launch date: February 14, 1991
Source: Commonwealth of Independent States (former USSR) (CIS)
Launch site: TYURATAM MISSILE AND SPACE COMPLEX (TTMTR)
Your satellite tracking list
PRISMA
Track 1 satellite(s)




NASA's NSSDC Master Catalog

Two Line Element Set (TLE):
1 21111U 91010A   25199.87716220 -.00000082  00000-0  00000+0 0  9996
2 21111  13.4675 345.1009 0006960 182.7391 156.7048  1.00282758126089
Source of the keplerian elements: AFSPC